Location: Cardiff
(53.7833°N, 113.6000°W)
Time: 02:12:02
(UTC+00:00)

AO-85 - Pass Details

Date: 08 December 2023
Orbit: 516 x 753 km, 64.8° (Epoch: 04 January)

Event Time Altitude Azimuth Distance (km) Brightness Sun altitude
Rises 01:40:08 0° 313° (NW) 2,804 ? -20.2°
Reaches altitude 10° 01:42:29 10° 323° (NW) 1,939 ? -20.5°
Enters shadow 01:46:07 34° 18° (NNE) 1,033 ? -21.0°
